Weather History for Fryeburg, ME

Change the Weather History Date:

Monday, January 21, 2013

  Actual Average Record
Temperature  
Mean Temperature 14 °F -  
Max Temperature 25 °F 25 °F 55 °F (2006)
Min Temperature 3 °F 2 °F -20 °F (2005)
Degree Days  
Heating Degree Days 51    
Moisture  
Dew Point 1 °F    
Average Humidity 54    
Maximum Humidity 88    
Minimum Humidity 27    
Precipitation  
Precipitation 0.00 in - - ()
Sea Level Pressure  
Sea Level Pressure 29.94 in    
Wind  
Wind Speed 4 mph (WNW)    
Max Wind Speed 10 mph    
Max Gust Speed 20 mph    
Visibility 10 miles    
Events Snow    
Averages and records for this station are not official NWS values.
T = Trace of Precipitation, MM = Missing Value Source: NWS Daily Summary

Daily Weather History Graph

Daily Weather History Graph

Search for Another Location

Airport:

Trip Planner

Search our weather history database for the weather conditions in past years. The results will help you decide how hot, cold, wet, or windy it might be!

Date:

Astronomy

Jan. 21, 2013 Rise Set
Actual Time 7:11 AM EST 4:39 PM EST
Civil Twilight 6:39 AM EST 5:11 PM EST
Nautical Twilight 6:04 AM EST 5:46 PM EST
Astronomical Twilight 5:30 AM EST 6:20 PM EST
Moon 12:16 PM EST (1/21) 2:37 AM EST (1/21)
Length of Visible Light 10h 31m
Length of Day
9h 28m
Waxing Gibbous, 75% of the Moon is Illuminated
Jan 21
Waxing Gibbous
Jan 26
Full
Feb 3
Last Quarter
Feb 10
New
Feb 17
First Quarter

Hourly Weather History & Observations

Time (EST) Temp. Windchill Dew Point Humidity Pressure Visibility Wind Dir Wind Speed Gust Speed Precip Events Conditions
12:54 AM 19.0 °F 8.2 °F 10.0 °F 68% 29.88 in 4.0 mi NW 9.2 mph - 0.00 in Snow Light Snow
1:54 AM 17.1 °F 7.6 °F 3.0 °F 54% 29.91 in 10.0 mi Variable 6.9 mph - 0.00 in   Overcast
2:54 AM 15.1 °F 5.2 °F 1.0 °F 54% 29.93 in 10.0 mi WNW 6.9 mph - 0.00 in   Scattered Clouds
3:54 AM 10.9 °F - -0.9 °F 59% 29.94 in 10.0 mi Calm Calm - N/A   Clear
4:54 AM 3.9 °F - -2.0 °F 76% 29.97 in 10.0 mi Calm Calm - N/A   Clear
5:54 AM 5.0 °F - -4.0 °F 66% 29.98 in 10.0 mi Calm Calm - N/A   Clear
6:54 AM 9.0 °F 2.4 °F -2.9 °F 59% 30.00 in 10.0 mi NW 3.5 mph - N/A   Clear
7:54 AM 3.0 °F - -2.9 °F 76% 30.02 in 10.0 mi Calm Calm - N/A   Clear
8:54 AM 15.1 °F - -5.1 °F 41% 30.03 in 10.0 mi Calm Calm - N/A   Clear
9:54 AM 17.1 °F - -2.9 °F 41% 30.04 in 10.0 mi Calm Calm - 0.00 in   Clear
10:54 AM 21.0 °F 14.6 °F -4.0 °F 33% 30.01 in 10.0 mi West 4.6 mph - 0.00 in   Clear
11:54 AM 24.1 °F 16.0 °F -5.1 °F 28% 29.97 in 10.0 mi WNW 6.9 mph - 0.00 in   Clear
12:54 PM 25.0 °F 16.3 °F -5.1 °F 27% 29.93 in 10.0 mi NW 8.1 mph - 0.00 in   Clear
1:54 PM 25.0 °F 14.8 °F -2.9 °F 30% 29.94 in 10.0 mi WSW 10.4 mph 19.6 mph N/A   Clear
2:54 PM 25.0 °F 19.3 °F -2.9 °F 30% 29.94 in 10.0 mi Variable 4.6 mph - N/A   Overcast
3:54 PM 23.0 °F 17.0 °F -2.0 °F 34% 29.94 in 10.0 mi WSW 4.6 mph - 0.00 in   Mostly Cloudy
4:54 PM 21.9 °F - -0.9 °F 37% 29.92 in 10.0 mi Calm Calm - N/A   Overcast
5:54 PM 19.9 °F - 1.0 °F 44% 29.93 in 10.0 mi Calm Calm - 0.00 in   Overcast
6:54 PM 21.0 °F 16.2 °F 5.0 °F 50% 29.94 in 10.0 mi SSW 3.5 mph - 0.00 in   Overcast
7:54 PM 19.9 °F - 7.0 °F 57% 29.94 in 10.0 mi Calm Calm - N/A   Overcast
8:54 PM 19.9 °F - 10.0 °F 65% 29.93 in 10.0 mi Calm Calm - N/A   Overcast
9:54 PM 15.1 °F - 9.0 °F 77% 29.90 in 10.0 mi Calm Calm - N/A   Clear
10:28 PM 12.2 °F 6.1 °F 8.6 °F 85% 29.85 in 10.0 mi NNW 3.5 mph - N/A   Mostly Cloudy
10:54 PM 12.0 °F - 9.0 °F 88% 29.87 in 10.0 mi Calm Calm - N/A   Overcast
11:54 PM 16.0 °F 10.4 °F 10.9 °F 81% 29.83 in 10.0 mi NNW 3.5 mph - N/A   Overcast